User: anonymous   Login
Location: Unspecified
(41.5000°N, 0.0000°E)
Time: 09:09:34
(UTC+00:00)
Language:

Courier 1B - Orbit

View from above orbital plane
View from above orbital plane
View from above satellite
View from above satellite

Ground track
Ground track

The orbit data is extracted from the following two-line orbital elements,

1    58U 60013A   19174.94664795 +.00000081 +00000-0 -52782-5 0  9994
2    58 028.3274 118.4922 0164863 332.8876 026.3139 13.46317709890139
Epoch (UTC): 23 June 2019 22:43:10
Eccentricity: 0.0164863
inclination: 28.3274°
perigee height: 963 km
apogee height: 1209 km
right ascension of ascending node: 118.4922°
argument of perigee: 332.8876°
revolutions per day: 13.46317709
mean anomaly at epoch: 26.3139°
orbit number at epoch: 89013

The dashed part of the orbit path shows where the satellite is in the earth's shadow,  

DLR